Погода в Мартыновичах

Украина / Киевская область     51°15′30″N   29°37′28″E
темп.,
°C
ветер,
м/с
пор.,
м/с
влажн.,
%
обл.,
%
осадки,
мм/ч
давл.,
гПа
погр.,
м
23 октября, сб
сб2300:00+8юз614615 0.0 1011430
03:00+8зюз714570 0.0 1011542
06:00+7зюз6156081 0.0 1011506
09:00+8зюз71356100 0.0 10121013
12:00+9з9125228 0.0 10151567
15:00+10зсз8114765 0.0 10161970
18:00+8з71153100 0.0 10181035
21:00+7з5961100 0.0 1019695
24 октября, вс
вс2400:00+7зсз5970100 0.1 10201225
03:00+6з61172100 0.1 1021681
06:00+6зсз61075100 0.1 1022792
09:00+4зсз5108666 0.1 1024586
12:00+5сз6972100 0.1 1027925
15:00+6сз6863100 0.1 10271077
18:00+6сз6955100 0.1 10291331
21:00+2сз3572100 0.1 103076
25 октября, пн
пн2500:00+1зсз35775 0.0 103290
03:000сз33835 0.0 103241
06:000сз22875 0.0 103312
09:00+1зюз00785 0.0 103439
12:00+6ююз22575 0.0 1034553
15:00+9ююз23465 0.0 1032865
18:00+5ю33595 0.0 103227
21:00+3ю35655 0.0 103168
26 октября, вт
вт2600:00+2ю48665 0.0 1031125
03:00+1ю36675 0.0 1031103
06:000ю48695 0.0 1030139
09:00+2ю4116221 0.0 1029270
12:00+9ююз69397 0.0 1027599
15:00+12ююз68322 0.0 1026945
18:00+7ю46460 0.0 102578
21:00+4ю4115521 0.0 1025172
27 октября, ср
ср2700:00+3ююз41164100 0.0 1024190
03:00+4ююз41169100 0.0 1024213
06:00+4ююз41171100 0.0 1023242
09:00+5юз4107583 0.0 1023290
12:00+10з57495 0.0 1022549
15:00+12зсз5747100 0.0 1022923
18:00+8зсз487198 0.0 1023296
21:00+5з36910 0.0 1024102